AirNav   Air Wisconsin pilot careers
 
 1607 users online  

KBST Belfast Municipal Airport
Belfast, Maine, USA

GOING TO BELFAST?


FAA INFORMATION EFFECTIVE 19 JULY 2018

Location

FAA Identifier: BST
Lat/Long: 44-24-33.8000N / 069-00-42.6000W
44-24.563333N / 069-00.710000W
44.4093889 / -69.0118333
(estimated)
Elevation: 197.6 ft. / 60.2 m (surveyed)
Variation: 18W (2000)
From city: 1 mile SW of BELFAST, ME
Time zone: UTC -4 (UTC -5 during Standard Time)
Zip code: 04915

Airport Operations

Airport use: Open to the public
Activation date: 03/1943
Control tower: no
ARTCC: BOSTON CENTER
FSS: BANGOR FLIGHT SERVICE STATION
NOTAMs facility: BGR (NOTAM-D service available)
Attendance: IREG
Wind indicator: lighted
Segmented circle: yes
Lights: ACTIVATE REIL 15/33 MIRL RY 15/33 - CTAF.
Beacon: white-green (lighted land airport)
Operates sunset to sunrise.

Airport Communications

CTAF/UNICOM: 122.975
WX AWOS-AV: 122.975 (207-930-7071)
BANGOR APPROACH: 118.925
BANGOR DEPARTURE: 118.925

Nearby radio navigation aids

VOR radial/distance  VOR name  Freq  Var
BGRr212/26.6BANGOR VORTAC114.8019W
AUGr099/34.1AUGUSTA VOR/DME111.4018W

 
NDB name  Hdg/Dist  Freq  Var  ID
BELFASTat field27818WBST -... ... -
SPRUCEHEAD029/21.935618WSUH ... ..- ....
BURNHAM157/22.834818WBUP -... ..- .--.

Airport Services

Parking: hangars and tiedowns
Airframe service: MINOR
Powerplant service: MINOR
Bottled oxygen: NONE
Bulk oxygen: NONE

Runway Information

Runway 15/33

Dimensions: 4000 x 100 ft. / 1219 x 30 m
Surface: asphalt, in excellent condition
Weight bearing capacity: 
Single wheel: 30.0
Runway edge lights: medium intensity
RUNWAY 15  RUNWAY 33
Latitude: 44-24.789857N44-24.337253N
Longitude: 069-01.043273W069-00.376365W
Elevation: 197.5 ft.158.5 ft.
Gradient: 1.0% DOWN1.0% UP
Traffic pattern: leftleft
Runway heading: 151 magnetic, 133 true331 magnetic, 313 true
Markings: nonprecision, in good conditionnonprecision, in good condition
Runway end identifier lights: yesyes
Touchdown point: yes, no lightsyes, no lights
Obstructions: 35 ft. tree, lighted, 210 ft. from runway, 255 ft. right of centerline
RWY 15 +55 FT. TREES 0 FT. TO 200 FT. FROM THRESHOLD, 240 FT. RIGHT OF CENTERLINE; +17 FT. TREES 0 FT. TO 100 FT. FROM THRESHOLD, 245 FT. LEFT OF CENTERLINE.
33 ft. trees, 765 ft. from runway, 260 ft. left of centerline, 17:1 slope to clear
RWY 33 + 4 FT. BRUSH 10 FT. TO 25 FT. FROM THRESHOLD, 81 FT. RIGHT OF CENTERLINE; + 10 FT. TREES 40 FT. TO 175 FT. FROM THRESHOLD, 190 FT. TO 230 FT. RIGHT OF CENTERLINE.

Airport Ownership and Management from official FAA records

Ownership: Publicly-owned
Owner: CITY OF BELFAST
CITY HALL 131 CHURCH ST (TOP FLOOR)
BELFAST, ME 04915
Phone 207-338-3370X600
Manager: THOMAS KITTREDGE
CITY HALL 131 CHURCH ST
BELFAST, ME 04915
Phone 207-338-3370X600
AIRPORT DIRECTOR.

Airport Operational Statistics

Aircraft based on the field: 15
Single engine airplanes: 14
Ultralights: 1
    
Aircraft operations: avg 27/day *
60% local general aviation
20% transient general aviation
20% air taxi
* for 12-month period ending 09 August 2017

Additional Remarks

DEER & BIRDS ON OR INV OF ARPT.
SURFACE CONDITION REPORTED MONDAY-FRIDAY 1400-2200 Z DECEMBER-MARCH.
CALL AHEAD FOR FBO SERVICES - 239-784-7492
FMI: WWW.CITYOFBELFAST.ORG/AIRPORT
80 FT. TALL OBSTRUCTION LIGHTS ALONG BOTH SIDES OF PRIMARY SURFACE AND TREE LINE.
GND TRANSPORTATION AVBL.
AWOS AVAILABLE VIA CTAF - 2 CLICKS OR VIA CALLING (207) 930-7071 OR GO TO WWW.DIGIWX-BST.COM
FREE UNSECURED WIFI AVAIL
DEER & BIRDS ON OR INV OF ARPT.
SFC COND RPRTD MONDAY-FRIDAY 1400-2200Z DEC-MAR.

Instrument Procedures

NOTE: All procedures below are presented as PDF files. If you need a reader for these files, you should download the free Adobe Reader.

NOT FOR NAVIGATION. Please procure official charts for flight.
FAA instrument procedures published for use from 19 July 2018 at 0901Z to 16 August 2018 at 0900Z.

 
IAPs - Instrument Approach Procedures
RNAV (GPS) RWY 15 **CHANGED**   download (228KB)
RNAV (GPS) RWY 33 **CHANGED**   download (261KB)
NDB RWY 15 **CHANGED**   download (183KB)
NOTE: Special Take-Off Minimums/Departure Procedures apply   download (178KB)

Other nearby airports with instrument procedures:

KRKD - Knox County Regional Airport (21 nm S)
KBGR - Bangor International Airport (25 nm N)
2B7 - Pittsfield Municipal Airport (27 nm NW)
KBHB - Hancock County-Bar Harbor Airport (28 nm E)
KWVL - Waterville Robert LaFleur Airport (29 nm W)
 
Loc | Ops | Rwys | IFR | FBO | Links
Com | Nav | Svcs | Stats | Notes


 
Area around KBST (Belfast Municipal Airport)
 
Road maps at: MapQuest Bing Google
 
Aerial photo
WARNING: Photo may not be current or correct
Aerial photo of KBST (Belfast Municipal Airport)
Photo by Kyle Warren Photography
Photo taken 20-Feb-2017
looking northwest.

Do you have a better or more recent aerial photo of Belfast Municipal Airport that you would like to share? If so, please send us your photo.

 
Sectional chart

 
Airport distance calculator
Flying to Belfast Municipal Airport? Find the distance to fly.

From to KBST

Sunrise and sunset
Times for 19-Jul-2018
 Local
(UTC-4)
 Zulu
(UTC)
Morning civil twilight04:3508:35
Sunrise05:1009:10
Sunset20:1400:14
Evening civil twilight20:4900:49

Current date and time
Zulu (UTC)  19-Jul-2018 17:39:45
Local (UTC-4)  19-Jul-2018 13:39:45
 
METAR
KRKD 
21nm S 
191656Z AUTO 18009KT 10SM SCT001 22/11 A3007 RMK AO2 SLP182 T02220106
KBGR 
25nm N 
191653Z 29008KT 10SM FEW050 24/09 A3005 RMK AO2 SLP172 T02390089 $
KBHB 
28nm E 
191656Z AUTO VRB05KT 10SM CLR 24/09 A3004 RMK AO2 SLP177 T02440089 $
KWVL 
29nm W 
191656Z AUTO 30007KT 10SM CLR 24/09 A3004 RMK AO2 SLP197 T02390089
KAUG 
34nm W 
191653Z AUTO 32007KT 10SM CLR 24/08 A3007 RMK AO2 SLP182 T02440083
KIWI 
40nm SW 
191653Z AUTO 00000KT 10SM CLR 25/09 A3008 RMK AO2 SLP185 T02500089
TAF
KRKD 
21nm S 
191130Z 1912/2012 VRB04KT P6SM SKC FM191700 19008KT P6SM SKC FM200000 00000KT P6SM SKC
KBGR 
25nm N 
191120Z 1912/2012 34003KT P6SM SKC FM191700 31004KT P6SM SKC
NOTAMs
Click for the latest NOTAMs
NOTAMs are issued by the DoD/FAA and will open in a separate window not controlled by AirNav.

 

 
 

Would you like to see your business listed on this page?

 If your business provides an interesting product or service to pilots, flight crews, aircraft, or users of the Belfast Municipal Airport, you should consider listing it here.  To start the listing process, click on the button below
 
Add a business
 

Other Pages about Belfast Municipal Airport

www.cityofbelfast.org/index.aspx?NID=147
 
Update a link
 
Copyright © AirNav, LLC. All rights reserved. Privacy Policy  Contact